Terminal Aerodrome Forecast
Issued by NWS Sterling, VA

Current Version | Previous Version | Graphics & Text | Print | Product List | Glossary On
Versions: 1 2 3 4 5 6 7 8 9 10 11 12 13 14 15 16 17 18 19 20 21 22 23 24
000
FTUS41 KLWX 091750
TAFDCA
TAF
KDCA 091750Z 0918/1024 02005KT 1SM -SN BR OVC015
     FM092000 36005KT 3SM -SN OVC020
     FM092300 32004KT 5SM -SN OVC030
     FM100200 VRB03KT P6SM BKN060
     FM100500 28006KT P6SM BKN080
     FM101400 28014G18KT P6SM FEW250
     FM102200 25009KT P6SM SCT100=

USA.gov is the U.S. government's official web portal to all federal, state and local government web resources and services.